[Iaude] MPEC C144: 2024 CG3 [a=2.20,e=0.49,i=6.6,H=23.5]

mpec at cfa.harvard.edu mpec at cfa.harvard.edu
Tue Feb 13 05:28:39 EST 2024


M.P.E.C. 2024-C144                            Issued 2024 February 13, 10:26 UT

     The Minor Planet Electronic Circulars contain information on unusual
         minor planets, routine data on comets and natural satellites,
         and occasional editorial announcements.  They are published
    on behalf of Division F of the International Astronomical Union by the
          Minor Planet Center, Smithsonian Astrophysical Observatory,
                          Cambridge, MA 02138, U.S.A.
			  
             Prepared using the Tamkin Foundation Computer Network

                              MPC at CFA.HARVARD.EDU
            URL https://www.minorplanetcenter.net/    ISSN 1523-6714

                                    2024 CG3                                    


Observations:
     K24C03G* C2024 02 11.43719409 32 28.990-20 16 32.08         21.61wXEC144F52
     K24C03G  C2024 02 11.44832909 32 30.861-20 16 17.37         21.39wXEC144F52
     K24C03G  C2024 02 11.45945109 32 32.742-20 16 01.74         21.09wXEC144F52
     K24C03G  C2024 02 12.11197509 34 36.23 -20 00 48.6                WEC144X09
     K24C03G  C2024 02 12.13449309 34 40.09 -20 00 18.4                WEC144X09
     K24C03G  C2024 02 12.14322609 34 41.58 -20 00 07.4                WEC144X09
     K24C03G |C2024 02 12.18309009 34 48.250-19 59 14.10         21.4 GVEC144807
     K24C03G |C2024 02 12.18703009 34 48.940-19 59 08.70         21.3 GVEC144807
     K24C03G |C2024 02 12.19096009 34 49.610-19 59 03.10         21.2 GVEC144807
     K24C03G  C2024 02 12.45052909 35 37.254-19 53 45.52         21.37GVEC144F52
     K24C03G  C2024 02 12.45134809 35 37.380-19 53 44.53         21.55GVEC144F52
     K24C03G |C2024 02 13.21892009 37 58.610-19 35 03.40         21.3 GVEC144807
     K24C03G |C2024 02 13.22483009 37 59.570-19 34 55.00         21.2 GVEC144807
     K24C03G |C2024 02 13.23082009 38 00.560-19 34 46.10         21.0 GVEC144807
     K24C03G  C2024 02 13.30069109 38 13.932-19 33 52.44         21.2 GVEC144H01
     K24C03G  C2024 02 13.30455109 38 14.566-19 33 46.88         21.1 GVEC144H01
     K24C03G  C2024 02 13.31494109 38 16.291-19 33 31.86         21.1 GVEC144H01
     K24C03G  C2024 02 13.32247309 38 17.534-19 33 20.92         21.1 GVEC144H01

Observer details:
807 Cerro Tololo Observatory, La Serena.  Observers T. Linder, R. Holmes.
    0.61-m f/11 Ritchey-Chretien + CCD.
F52 Pan-STARRS 2, Haleakala.  Observers J. Herman, T. Lowe, P. Minguez, A.
    Schultz, I. Smith.  Measurers K. Chambers, T. de Boer, J. Fairlamb, H.
    Gao, M. Huber, C.-C. Lin, E. Magnier, Y. Ramanjooloo, R. Wainscoat, R.
    Weryk.  1.8-m Ritchey-Chretien + CCD.
H01 Magdalena Ridge Observatory, Socorro.  Observers W. H. Ryan, E. V. Ryan.
    Measurer W. H. Ryan.  2.4-m f/8.9 Ritchey-Chretien + CCD.
X09 Deep Random Survey, Rio Hurtado.  Observers A. Schnabel, D. Ruhela.
    Measurer S. Deen.  0.43-m reflector + CMOS.

Orbital elements:
2024 CG3                                                 Earth MOID = 0.1775 AU
Epoch 2023 Sept. 13.0 TT = JDT 2460200.5                MPC                     
M 319.23777              (2000.0)            P               Q                  
n   0.30297494     Peri.  293.55339     -0.59222822     -0.80536583             
a   2.1954906      Node   192.85771     +0.77478563     -0.56046850             
e   0.4862883      Incl.    6.58699     +0.22129835     -0.19303094             
P   3.25           H   23.59          G   0.15           U   8                  
Residuals in seconds of arc
240211 F52  0.1-  0.3-    240212 807  0.3-  0.2-    240213 807  0.1-  0.1-
240211 F52  0.0   0.2-    240212 807  0.1+  0.1-    240213 807  0.1-  0.1+
240211 F52  0.3+  0.7+    240212 807  0.3+  0.1+    240213 H01  0.0   0.0
240212 X09  0.8-  0.3-    240212 F52  0.0   0.1+    240213 H01  0.0   0.0
240212 X09  0.2-  0.3+    240212 F52  0.1-  0.1-    240213 H01  0.0   0.0
240212 X09  0.0   0.3-    240213 807  0.1+  0.0     240213 H01  0.0   0.0

Ephemeris:
2024 CG3                 a,e,i = 2.20, 0.49, 7                   q = 1.1278
Date    TT    R. A. (2000) Decl.     Delta      r    Elong.  Phase     V
2024 01 14    08 01 08.4 -20 58 39   0.1961  1.1353   137.2    36.1    21.8
...
2024 01 29    08 48 30.2 -23 04 38   0.1827  1.1285   138.7    35.2    21.6
...
2024 02 06    09 15 04.2 -21 55 43   0.1820  1.1352   142.1    32.2    21.5
...
2024 02 12    09 34 13.8 -20 03 32   0.1849  1.1448   145.9    28.9    21.5
2024 02 13    09 37 18.6 -19 40 26   0.1857  1.1468   146.6    28.3    21.5
2024 02 14    09 40 21.2 -19 16 13   0.1866  1.1489   147.3    27.7    21.5
...
2024 02 20    09 57 42.7 -16 31 34   0.1940  1.1635   152.0    23.5    21.5
...
2024 02 28    10 18 06.7 -12 20 29   0.2100  1.1883   158.5    17.7    21.5
...
2024 03 14    10 48 00.8 -04 41 46   0.2611  1.2490   165.9    11.2    21.8

A. U. Tomatic                (C) Copyright 2024 MPC           M.P.E.C. 2024-C144





More information about the Iaude mailing list